Theta_e
324 325 327 329 330 330 331 329 325 323 323 324 325 326 327 327 327 328 328 327 326 324 324 323 323 322 322 322 321 321 321 321 320 321 322 320 319 317 315 307 301 299 297
325 321 322 327 330 330 329 331 331 331 331 330 329 329 329 328 329 329 327 327 326 325 325 323 323 322 322 321 321 321 321 320 320 320 319 321 318 316 309 303 298 297 296
322 322 321 322 324 326 327 328 329 329 330 330 331 331 331 331 330 328 327 326 325 325 324 324 324 323 323 322 322 322 321 321 320 319 319 320 318 311 308 301 297 296 296
316 322 319 320 320 320 322 325 326 327 328 329 331 331 330 330 330 328 327 326 324 325 325 325 324 323 323 323 324 323 321 320 319 319 318 317 314 309 308 300 297 296 295
315 315 317 317 317 317 317 318 322 325 326 328 329 330 331 331 332 331 329 327 325 325 324 323 323 323 323 323 325 321 320 319 318 318 317 316 307 300 298 299 298 295 294
315 315 315 316 316 317 317 317 319 321 324 326 327 328 329 330 330 331 331 330 326 325 324 323 322 323 323 323 322 320 319 318 318 318 316 307 298 297 296 295 295 294 294
316 316 314 315 315 316 316 317 317 319 321 324 325 327 328 329 330 330 330 328 327 326 324 324 323 322 322 322 320 319 318 318 318 316 305 297 296 296 295 294 293 293 292
314 315 316 315 314 315 315 313 314 316 320 322 324 326 327 328 329 328 329 329 328 326 325 324 322 321 321 320 319 318 317 318 313 304 297 296 296 296 295 294 293 293 292
312 313 314 315 314 314 313 313 312 311 314 320 323 324 325 327 327 327 329 330 332 329 326 325 323 322 320 319 318 317 318 312 303 297 296 296 296 295 294 293 293 292 292
312 312 312 312 312 313 313 313 312 311 312 317 319 320 322 324 326 327 328 330 331 331 327 326 323 321 320 318 317 317 312 302 297 296 296 296 295 294 293 293 292 292 291
310 311 310 311 312 312 311 311 311 311 311 315 317 319 322 324 325 327 327 328 329 330 327 326 323 321 319 317 317 311 303 297 296 296 296 295 294 293 293 292 292 292 291
310 310 310 310 310 311 311 311 310 310 311 314 316 318 318 317 316 314 314 324 326 328 328 325 322 320 317 316 312 304 297 296 296 296 295 294 293 292 292 292 291 291 290
310 310 310 310 310 310 310 309 309 310 311 311 311 311 311 311 311 311 311 311 318 324 326 323 320 319 316 314 305 298 296 296 295 295 294 293 292 292 292 291 291 291 290
311 310 311 311 311 310 310 310 309 309 310 310 311 311 310 310 310 310 310 311 314 324 325 320 319 317 316 308 300 296 296 295 295 294 293 292 292 291 291 291 291 290 290
311 310 310 310 311 311 310 310 310 310 310 310 310 310 310 311 311 311 310 316 321 321 321 320 319 316 312 303 297 295 295 295 294 293 292 292 291 291 291 291 291 290 290
310 310 310 310 310 310 311 310 310 310 310 310 310 310 312 312 313 312 316 320 321 320 318 318 316 314 306 298 295 295 295 294 293 292 292 291 291 291 291 291 290 290 290
310 310 309 309 309 309 310 310 311 310 310 309 310 311 312 312 314 317 318 321 320 320 318 317 314 310 301 296 295 295 294 293 292 291 291 291 291 291 291 290 290 290 289
309 308 308 308 308 309 309 309 310 310 310 310 310 310 312 313 316 317 319 319 318 318 317 316 309 302 297 295 295 294 293 292 291 291 290 290 290 293 290 289 289 289 289
309 308 308 308 308 309 309 308 309 309 310 310 310 310 311 312 315 316 318 318 317 316 315 311 304 299 295 295 294 293 292 291 291 290 290 293 296 290 289 289 289 289 288
308 308 308 308 309 309 309 308 308 308 309 309 310 309 310 312 313 315 316 317 316 314 311 302 297 296 295 294 293 292 291 290 290 290 297 297 292 289 288 288 288 288 287
308 309 309 309 309 308 308 308 308 308 308 308 308 308 309 311 311 313 314 314 313 310 302 297 295 294 294 293 292 291 290 290 290 297 297 295 292 288 288 287 287 287 287
309 308 308 308 309 308 307 307 307 307 307 307 307 307 307 308 311 312 312 312 310 305 299 296 294 294 293 292 290 290 290 290 299 297 296 295 289 288 287 287 287 287 286
304 304 304 306 307 308 307 307 306 306 306 306 306 306 306 306 308 310 310 308 304 299 297 295 294 293 293 291 289 290 290 298 297 296 296 290 287 287 287 287 286 286 286
302 302 302 303 305 307 307 307 307 306 306 305 305 304 304 304 304 305 306 305 302 298 295 294 293 293 292 290 289 290 297 297 297 296 293 287 287 286 286 286 286 286 285
301 301 301 301 302 304 305 306 306 306 305 305 304 304 303 302 302 302 302 302 300 298 297 295 294 294 292 291 291 297 298 298 296 296 288 287 286 286 286 286 285 285 285
299 300 300 300 301 301 302 304 305 305 304 303 303 302 302 301 301 300 300 298 297 296 295 294 293 293 292 289 295 298 297 296 297 291 287 286 286 286 285 285 285 285 284
Wind_Speed
21 25 31 33 33 32 30 30 29 27 27 27 27 26 25 23 22 20 16 18 15 13 12 9 10 10 9 11 11 11 11 12 14 17 10 11 7 7 5 5 5 5 14
22 28 31 33 35 34 34 32 32 30 30 28 27 27 25 25 23 20 19 20 18 17 17 14 13 13 13 14 14 14 13 13 15 14 13 2 3 4 8 3 8 10 13
27 27 32 33 34 37 37 37 35 34 32 31 29 29 28 28 26 23 22 23 19 19 18 18 18 17 16 18 18 16 15 15 16 15 7 3 3 5 4 2 7 14 15
30 27 32 35 37 38 37 39 38 37 36 34 35 34 33 32 27 23 23 20 20 21 20 20 19 19 21 20 19 17 16 16 16 15 14 10 10 3 1 4 7 12 12
32 34 35 36 35 34 36 38 39 40 39 39 38 37 36 34 29 27 24 24 23 23 19 23 22 23 22 22 20 16 19 17 16 16 14 11 9 8 7 6 8 10 10
37 34 34 35 36 35 35 36 38 40 40 41 41 40 38 37 34 34 31 27 26 25 21 22 23 26 24 23 20 20 18 17 17 17 15 11 9 8 6 6 7 5 6
38 37 36 36 36 37 38 39 38 40 41 42 41 41 40 39 37 36 34 33 31 29 25 22 22 25 24 22 21 20 17 17 18 16 12 10 8 6 6 5 6 4 4
30 36 34 34 38 41 39 40 41 42 42 42 42 42 41 41 39 37 35 35 34 30 28 22 19 21 23 22 21 19 19 17 16 14 12 9 8 7 7 7 7 7 4
23 23 26 33 36 39 41 40 41 41 43 42 44 44 44 42 40 38 36 36 36 34 30 24 22 22 22 23 22 22 21 18 16 14 11 9 9 8 7 6 7 7 4
21 22 22 25 27 32 35 37 38 39 40 41 42 40 40 39 39 38 38 37 36 35 33 29 25 23 24 24 23 23 20 18 16 14 11 10 9 8 6 5 6 7 8
17 20 20 21 23 27 29 30 38 42 42 41 40 38 37 36 36 37 37 36 34 37 38 33 28 26 25 26 24 23 21 19 16 14 12 10 9 7 6 5 6 8 9
14 15 17 19 23 25 26 29 34 40 40 39 37 36 36 38 38 39 38 36 35 39 38 36 29 24 26 24 25 23 21 19 17 14 13 11 8 7 5 5 6 9 11
8 7 9 12 16 20 22 23 28 32 34 34 35 36 36 37 38 39 39 35 35 40 39 37 29 26 27 26 26 24 22 19 17 14 13 11 9 7 5 5 6 9 12
11 9 10 9 9 12 16 19 23 27 29 31 33 33 34 34 36 36 36 34 36 39 41 35 26 28 27 29 28 26 23 20 17 16 14 13 10 7 5 5 7 10 12
24 17 16 14 12 12 15 19 22 25 27 28 29 29 29 30 31 31 32 33 38 37 42 33 28 30 32 31 28 26 23 20 19 17 15 13 10 7 6 7 8 10 12
20 18 18 18 18 18 18 18 21 23 25 26 26 25 25 25 26 27 30 33 36 41 36 33 29 34 32 30 28 25 23 22 20 18 17 14 11 8 7 9 10 11 12
27 24 19 18 18 17 18 19 20 22 24 24 24 24 24 25 26 27 30 35 38 39 39 32 34 34 33 30 28 26 24 21 19 19 17 15 12 9 10 10 11 11 13
25 21 19 17 15 15 15 17 22 24 24 24 25 26 26 27 28 29 32 38 40 37 37 37 37 35 33 31 29 27 25 23 21 20 18 15 10 14 13 12 11 12 12
26 27 27 24 20 17 17 17 19 23 26 27 28 28 28 29 30 33 35 36 39 40 39 38 39 38 35 32 30 28 26 23 22 20 16 12 12 19 17 14 13 14 13
17 18 16 14 15 17 19 20 20 22 25 28 28 28 29 30 33 35 36 38 39 40 40 39 38 35 33 32 30 29 26 24 22 18 14 15 18 22 19 16 15 15 14
8 14 15 16 16 16 15 16 18 20 19 23 28 30 32 33 31 35 38 39 41 41 40 39 37 36 34 32 32 29 25 22 21 17 16 17 22 24 20 18 17 16 16
2 8 11 13 13 12 13 14 16 13 15 19 24 29 32 33 35 38 39 40 41 40 41 41 40 39 36 33 30 27 24 22 18 16 17 20 27 24 21 19 18 18 18
2 5 7 9 10 10 10 10 9 13 14 16 19 23 28 33 35 37 40 42 43 44 45 44 43 41 37 34 31 27 25 20 18 19 19 26 25 23 22 21 20 20 19
3 3 4 6 9 9 9 8 8 10 12 13 15 17 23 29 33 36 38 41 45 47 47 45 43 41 39 36 32 29 24 21 20 18 23 27 26 25 24 22 22 21 20
4 5 7 8 9 9 9 8 8 9 10 11 13 15 18 23 29 36 39 43 45 46 47 46 45 42 39 35 30 27 21 20 18 21 29 29 28 26 26 24 23 23 22
7 7 8 9 9 10 10 10 10 9 9 10 12 14 17 19 25 31 38 42 45 45 45 44 41 38 35 32 28 23 20 21 28 30 32 30 28 28 27 25 24 23 22
Wind_Direction
216 214 214 213 214 215 216 217 218 218 220 221 222 225 227 228 232 234 235 239 243 251 253 256 247 232 245 263 270 277 284 288 297 303 313 307 293 298 330 21 25 28 352
219 216 213 215 219 219 218 219 221 221 224 226 228 231 236 236 240 239 242 243 243 247 245 248 251 251 257 263 272 273 279 286 295 299 311 267 285 192 320 8 4 348 346
221 219 217 217 220 223 222 222 223 225 226 228 231 231 233 235 234 235 233 241 241 242 243 245 247 253 253 260 264 272 275 283 283 283 280 276 231 293 215 280 350 350 352
230 224 222 221 222 223 226 228 227 228 230 229 232 234 235 236 236 241 246 246 235 250 242 250 246 251 253 256 260 262 272 273 270 268 274 265 266 252 233 300 333 345 345
233 230 229 227 228 228 229 230 230 230 231 232 233 235 238 239 243 241 240 240 244 246 254 249 248 248 256 259 255 265 274 262 261 263 269 263 252 249 249 274 308 347 344
239 235 234 232 231 231 232 233 233 233 232 233 234 233 237 240 241 244 241 236 239 246 246 253 249 248 254 256 260 270 263 255 253 258 262 244 239 237 247 265 299 331 336
235 239 238 234 231 231 233 234 233 234 233 234 234 236 237 240 244 246 241 238 239 237 245 249 250 254 255 253 259 260 247 245 249 249 237 235 242 265 284 296 309 328 340
239 240 241 241 238 236 235 236 236 236 234 235 236 238 239 241 243 244 242 238 242 241 243 240 243 253 253 253 258 243 237 245 235 230 231 240 260 282 297 313 332 340 340
245 245 244 244 245 244 242 240 240 238 236 236 237 240 241 241 244 243 241 239 238 239 235 238 242 248 247 251 247 240 243 228 221 223 228 244 263 276 288 312 336 352 347
258 258 250 251 251 251 250 247 245 241 237 234 235 238 240 241 242 241 241 240 238 235 232 236 236 241 245 242 240 236 222 219 219 222 232 248 264 272 288 314 329 352 346
264 259 252 248 249 250 247 246 240 235 232 232 234 235 237 239 241 242 243 243 239 233 228 231 228 232 239 238 232 218 216 217 219 227 237 247 254 264 279 309 325 344 345
294 282 268 253 247 243 242 245 240 233 229 231 233 235 236 239 241 242 242 237 233 231 234 222 221 234 231 229 218 216 216 217 221 229 238 243 242 246 264 294 323 334 339
342 325 288 271 260 253 245 234 230 228 229 232 235 237 239 241 244 244 242 237 226 227 228 216 219 237 228 216 212 214 215 218 223 231 235 234 230 232 249 289 316 330 333
315 328 330 313 283 261 251 239 233 232 233 236 240 244 247 248 246 242 237 228 225 220 220 211 225 233 220 213 212 213 215 219 224 229 227 222 219 221 250 284 312 323 330
288 286 296 294 275 260 245 237 233 236 240 243 246 247 245 242 237 232 231 220 217 223 212 216 231 221 212 212 212 213 217 221 224 225 221 216 214 225 254 285 302 317 323
287 287 282 276 266 264 253 247 244 243 245 248 248 247 245 241 231 230 220 221 212 227 208 217 227 213 210 211 212 215 220 222 222 220 216 212 216 228 256 275 298 308 315
288 284 281 276 280 280 273 261 255 252 250 248 245 243 240 233 224 221 216 223 214 218 212 225 218 212 211 213 213 215 219 221 222 217 214 212 219 241 262 271 287 301 310
282 289 288 286 279 279 271 266 254 249 249 249 248 242 236 229 221 224 222 221 212 212 220 220 211 212 212 212 214 216 218 219 217 216 216 219 231 263 259 265 278 289 298
277 283 283 280 274 272 274 271 263 252 247 246 245 242 238 230 221 221 221 218 218 220 218 215 212 212 212 212 214 216 218 218 216 214 218 233 252 259 260 264 271 280 290
275 280 286 286 279 272 266 262 260 258 252 250 249 246 242 236 226 224 223 221 221 222 218 213 213 215 215 216 217 217 217 217 214 211 226 243 252 259 261 265 268 275 282
282 290 293 294 286 277 274 272 267 267 266 255 250 245 242 239 233 228 227 225 222 219 214 213 215 215 216 217 216 217 219 216 208 226 240 247 254 259 262 265 270 275 278
249 291 301 302 297 286 274 271 271 274 263 258 255 249 244 240 235 230 230 228 224 218 216 216 216 216 216 216 215 214 216 207 222 233 245 253 255 258 262 266 271 274 275
28 346 324 315 311 306 293 280 267 257 259 258 257 252 246 243 239 234 230 225 221 219 218 218 217 217 217 215 214 213 204 217 227 239 251 253 256 259 261 262 264 267 273
39 34 0 338 334 331 325 309 279 260 259 262 262 258 249 244 241 237 234 230 226 223 222 222 221 221 219 217 212 204 212 222 240 256 254 252 254 256 257 257 259 263 266
34 27 13 7 357 345 334 321 304 289 276 267 265 261 256 250 245 241 238 234 233 234 233 230 229 226 223 222 214 213 230 246 261 260 248 247 248 249 250 252 254 260 265
41 27 18 10 358 347 338 330 321 306 293 284 274 266 260 254 249 243 240 237 236 236 237 237 238 234 230 220 211 225 248 269 271 241 245 246 247 248 250 252 255 258 262